When you browse on this site, cookies collect data to enhance your experience and personalize the content and advertising you see.
Visit our Privacy Policy to learn more. By continuing to use the site, you agree to this use of cookies and data.
  • In Portugal
  • List of Countries
  • For 7 days
  • Water Temperature
  • Satellite Maps
  • Weather Map
  • Weather Widgets
  • user-avatar
    Login

    Hourly Weather Khulna

    Today, 23 May, Thursday

    Time Temperature Precipitation Wind Pressure Humidity
    00:00 +32°C° 0 mm 4 mps 753 mmHg 78%
    01:00 +32°C° 0 mm 4 mps 753 mmHg 79%
    02:00 +32°C° 0 mm 4 mps 753 mmHg 80%
    03:00 +32°C° 0 mm 4 mps 752 mmHg 80%
    04:00 +32°C° 0 mm 4 mps 752 mmHg 80%
    05:00 +32°C° 0 mm 4 mps 753 mmHg 80%
    06:00 +32°C° 0 mm 4 mps 753 mmHg 80%
    07:00 +33°C° 0 mm 4 mps 753 mmHg 72%
    08:00 +35°C° 0 mm 4 mps 753 mmHg 64%
    09:00 +37°C° 0 mm 5 mps 754 mmHg 56%
    10:00 +40°C° 0 mm 5 mps 753 mmHg 50%
    11:00 +42°C° 0 mm 5 mps 753 mmHg 43%
    12:00 +44°C° 0 mm 6 mps 753 mmHg 36%
    13:00 +44°C° 0 mm 6 mps 752 mmHg 37%
    14:00 +44°C° 0 mm 6 mps 751 mmHg 37%
    15:00 +44°C° 0 mm 7 mps 750 mmHg 37%
    16:00 +43°C° 0 mm 7 mps 750 mmHg 43%
    17:00 +40°C° 0 mm 7 mps 750 mmHg 48%
    18:00 +38°C° 0 mm 7 mps 749 mmHg 54%
    19:00 +36°C° 0 mm 7 mps 750 mmHg 59%
    20:00 +35°C° 0 mm 8 mps 750 mmHg 64%
    21:00 +34°C° 0 mm 8 mps 751 mmHg 69%
    22:00 +34°C° 0 mm 7 mps 751 mmHg 70%
    23:00 +33°C° 0 mm 5 mps 751 mmHg 70%

    Tomorrow, 24 May, Friday

    Time Temperature Precipitation Wind Pressure Humidity
    00:00 +33°C° 0 mm 3 mps 752 mmHg 70%
    01:00 +33°C° 0 mm 4 mps 752 mmHg 71%
    02:00 +33°C° 0 mm 4 mps 752 mmHg 73%
    03:00 +33°C° 0 mm 5 mps 751 mmHg 74%
    04:00 +33°C° 0 mm 6 mps 751 mmHg 74%
    05:00 +33°C° 0 mm 6 mps 751 mmHg 74%
    06:00 +32°C° 0 mm 6 mps 751 mmHg 75%
    07:00 +33°C° 0 mm 7 mps 752 mmHg 71%
    08:00 +34°C° 0 mm 7 mps 752 mmHg 68%
    09:00 +35°C° 0 mm 7 mps 753 mmHg 65%
    10:00 +38°C° 0 mm 7 mps 752 mmHg 57%
    11:00 +40°C° 0 mm 8 mps 752 mmHg 49%
    12:00 +43°C° 0 mm 8 mps 752 mmHg 42%
    13:00 +43°C° 0 mm 8 mps 751 mmHg 43%
    14:00 +43°C° 0 mm 8 mps 750 mmHg 43%
    15:00 +43°C° 0 mm 8 mps 750 mmHg 44%
    16:00 +40°C° 0 mm 8 mps 749 mmHg 49%
    17:00 +39°C° 0 mm 9 mps 749 mmHg 55%
    18:00 +37°C° 0 mm 9 mps 748 mmHg 60%
    19:00 +35°C° 0.6 mm 8 mps 749 mmHg 65%
    20:00 +34°C° 0.6 mm 8 mps 750 mmHg 69%
    21:00 +33°C° 0.6 mm 7 mps 750 mmHg 74%
    22:00 +33°C° 0 mm 7 mps 750 mmHg 74%
    23:00 +33°C° 0 mm 6 mps 750 mmHg 74%

    Day after tomorrow, 25 May, Saturday

    Time Temperature Precipitation Wind Pressure Humidity
    00:00 +33°C° 0 mm 6 mps 750 mmHg 74%
    01:00 +33°C° 0 mm 6 mps 750 mmHg 75%
    02:00 +33°C° 0 mm 5 mps 750 mmHg 76%
    03:00 +32°C° 0 mm 5 mps 749 mmHg 76%
    04:00 +32°C° 0 mm 5 mps 749 mmHg 77%
    05:00 +33°C° 0 mm 5 mps 749 mmHg 77%
    06:00 +33°C° 0 mm 6 mps 750 mmHg 77%
    07:00 +34°C° 0 mm 6 mps 750 mmHg 72%
    08:00 +35°C° 0 mm 7 mps 750 mmHg 68%
    09:00 +36°C° 0 mm 7 mps 751 mmHg 64%
    10:00 +39°C° 0 mm 7 mps 751 mmHg 58%
    11:00 +41°C° 0 mm 7 mps 750 mmHg 51%
    12:00 +44°C° 0 mm 7 mps 750 mmHg 45%
    13:00 +44°C° 0 mm 7 mps 750 mmHg 44%
    14:00 +44°C° 0 mm 7 mps 749 mmHg 44%
    15:00 +44°C° 0 mm 7 mps 748 mmHg 44%
    16:00 +41°C° 1.3 mm 6 mps 748 mmHg 51%
    17:00 +39°C° 1.3 mm 6 mps 748 mmHg 59%
    18:00 +36°C° 1.3 mm 6 mps 747 mmHg 67%
    19:00 +35°C° 1.9 mm 6 mps 748 mmHg 71%
    20:00 +34°C° 1.9 mm 7 mps 749 mmHg 75%
    21:00 +33°C° 1.9 mm 7 mps 750 mmHg 79%
    22:00 +33°C° 0 mm 7 mps 750 mmHg 80%
    23:00 +33°C° 0 mm 6 mps 750 mmHg 80%

    26 May, Sunday

    Time Temperature Precipitation Wind Pressure Humidity
    00:00 +32°C° 0 mm 6 mps 750 mmHg 81%
    01:00 +32°C° 0 mm 5 mps 750 mmHg 81%
    02:00 +32°C° 0 mm 5 mps 749 mmHg 81%
    03:00 +32°C° 0 mm 4 mps 749 mmHg 82%
    04:00 +32°C° 0 mm 4 mps 749 mmHg 81%
    05:00 +32°C° 0 mm 5 mps 749 mmHg 80%
    06:00 +33°C° 0 mm 5 mps 750 mmHg 80%
    07:00 +33°C° 0 mm 5 mps 750 mmHg 77%
    08:00 +34°C° 0 mm 6 mps 751 mmHg 75%
    09:00 +34°C° 0 mm 6 mps 752 mmHg 72%
    10:00 +36°C° 0 mm 6 mps 751 mmHg 67%
    11:00 +38°C° 0 mm 6 mps 751 mmHg 62%
    12:00 +40°C° 0 mm 6 mps 751 mmHg 56%
    13:00 +40°C° 0 mm 6 mps 750 mmHg 54%
    14:00 +41°C° 0 mm 7 mps 750 mmHg 52%
    15:00 +41°C° 0 mm 7 mps 749 mmHg 49%
    16:00 +40°C° 0 mm 7 mps 749 mmHg 55%
    17:00 +38°C° 0 mm 8 mps 748 mmHg 62%
    18:00 +35°C° 0 mm 8 mps 748 mmHg 68%
    19:00 +35°C° 0 mm 6 mps 749 mmHg 70%
    20:00 +34°C° 0 mm 5 mps 750 mmHg 72%
    21:00 +34°C° 0 mm 3 mps 751 mmHg 74%
    22:00 +33°C° 0 mm 3 mps 751 mmHg 75%
    23:00 +33°C° 0 mm 4 mps 751 mmHg 76%

    27 May, Monday

    Time Temperature Precipitation Wind Pressure Humidity
    00:00 +33°C° 0 mm 4 mps 750 mmHg 77%
    01:00 +33°C° 0 mm 4 mps 750 mmHg 79%
    02:00 +32°C° 0 mm 4 mps 750 mmHg 80%
    03:00 +32°C° 0 mm 4 mps 750 mmHg 81%
    04:00 +32°C° 0 mm 4 mps 750 mmHg 81%
    05:00 +32°C° 0 mm 4 mps 750 mmHg 81%
    06:00 +31°C° 0 mm 3 mps 750 mmHg 81%
    07:00 +34°C° 0 mm 4 mps 751 mmHg 73%
    08:00 +36°C° 0 mm 4 mps 751 mmHg 64%
    09:00 +39°C° 0 mm 5 mps 752 mmHg 56%
    10:00 +40°C° 0 mm 5 mps 752 mmHg 51%
    11:00 +42°C° 0 mm 5 mps 751 mmHg 45%
    12:00 +45°C° 0 mm 5 mps 751 mmHg 40%
    13:00 +45°C° 0 mm 5 mps 750 mmHg 39%
    14:00 +45°C° 0 mm 5 mps 750 mmHg 39%
    15:00 +46°C° 0 mm 5 mps 749 mmHg 38%
    16:00 +44°C° 0 mm 6 mps 749 mmHg 44%
    17:00 +41°C° 0 mm 6 mps 749 mmHg 51%
    18:00 +39°C° 0 mm 7 mps 749 mmHg 57%
    19:00 +38°C° 0 mm 7 mps 750 mmHg 62%
    20:00 +35°C° 0 mm 6 mps 750 mmHg 68%
    21:00 +34°C° 0 mm 6 mps 751 mmHg 73%
    22:00 +34°C° 0 mm 6 mps 751 mmHg 74%
    23:00 +33°C° 0 mm 5 mps 751 mmHg 76%

    28 May, Tuesday

    Time Temperature Precipitation Wind Pressure Humidity
    00:00 +33°C° 0 mm 5 mps 751 mmHg 77%
    01:00 +33°C° 0 mm 5 mps 750 mmHg 77%
    02:00 +33°C° 0 mm 5 mps 750 mmHg 77%
    03:00 +33°C° 0 mm 5 mps 750 mmHg 76%
    04:00 +33°C° 0.1 mm 4 mps 751 mmHg 76%
    05:00 +33°C° 0.1 mm 4 mps 751 mmHg 75%
    06:00 +33°C° 0.1 mm 3 mps 751 mmHg 74%
    07:00 +34°C° 0 mm 4 mps 751 mmHg 71%
    08:00 +35°C° 0 mm 4 mps 752 mmHg 68%
    09:00 +35°C° 0 mm 4 mps 752 mmHg 64%
    10:00 +37°C° 0 mm 4 mps 752 mmHg 58%
    11:00 +40°C° 0 mm 4 mps 752 mmHg 52%
    12:00 +41°C° 0 mm 4 mps 752 mmHg 46%
    13:00 +42°C° 0 mm 5 mps 751 mmHg 43%
    14:00 +43°C° 0 mm 5 mps 750 mmHg 41%
    15:00 +45°C° 0 mm 6 mps 749 mmHg 38%
    16:00 +42°C° 0 mm 6 mps 749 mmHg 43%
    17:00 +40°C° 0 mm 6 mps 749 mmHg 49%
    18:00 +38°C° 0 mm 6 mps 749 mmHg 54%
    19:00 +36°C° 0 mm 6 mps 750 mmHg 60%
    20:00 +35°C° 0 mm 5 mps 750 mmHg 66%
    21:00 +34°C° 0 mm 5 mps 751 mmHg 72%
    22:00 +33°C° 0 mm 5 mps 751 mmHg 73%
    23:00 +33°C° 0 mm 5 mps 751 mmHg 74%
    Show more